Year,Month,Day,Hour,Minute,Value (Times are PST for temperature in C)
2010,02,17,00,00,1.00
2010,02,17,00,01,1.10
2010,02,17,00,02,1.10
2010,02,17,00,03,1.10
2010,02,17,00,04,1.10
2010,02,17,00,05,1.10
2010,02,17,00,06,1.10
2010,02,17,00,07,1.10
2010,02,17,00,08,1.00
2010,02,17,00,09,1.00
2010,02,17,00,10,1.00
2010,02,17,00,11,1.00
2010,02,17,00,12,0.90
2010,02,17,00,13,0.90
2010,02,17,00,14,0.90
2010,02,17,00,15,0.90
2010,02,17,00,16,0.90
2010,02,17,00,17,0.90
2010,02,17,00,18,0.90
2010,02,17,00,19,0.80
2010,02,17,00,20,0.80
2010,02,17,00,21,0.90
2010,02,17,00,22,0.90
2010,02,17,00,23,0.90
2010,02,17,00,24,0.90
2010,02,17,00,25,0.80
2010,02,17,00,26,0.80
2010,02,17,00,27,0.80
2010,02,17,00,28,0.80
2010,02,17,00,29,0.80
2010,02,17,00,30,0.80
2010,02,17,00,31,0.80
2010,02,17,00,32,0.70
2010,02,17,00,33,0.70
2010,02,17,00,34,0.70
2010,02,17,00,35,0.70
2010,02,17,00,36,0.70
2010,02,17,00,37,0.70
2010,02,17,00,38,0.60
2010,02,17,00,39,0.60
2010,02,17,00,40,0.60
2010,02,17,00,41,0.60
2010,02,17,00,42,0.60
2010,02,17,00,43,0.50
2010,02,17,00,44,0.50
2010,02,17,00,45,0.50
2010,02,17,00,46,0.50
2010,02,17,00,47,0.40
2010,02,17,00,48,0.40
2010,02,17,00,49,0.40
2010,02,17,00,50,0.40
2010,02,17,00,51,0.30
2010,02,17,00,52,0.30
2010,02,17,00,53,0.30
2010,02,17,00,54,0.30
2010,02,17,00,55,0.30
2010,02,17,00,56,0.30
2010,02,17,00,57,0.30
2010,02,17,00,58,0.30
2010,02,17,00,59,0.30
2010,02,17,01,00,0.30
2010,02,17,01,01,0.30
2010,02,17,01,02,0.30
2010,02,17,01,03,0.30
2010,02,17,01,04,0.30
2010,02,17,01,05,0.30
2010,02,17,01,06,0.30
2010,02,17,01,07,0.30
2010,02,17,01,08,0.30
2010,02,17,01,09,0.30
2010,02,17,01,10,0.30
2010,02,17,01,11,0.30
2010,02,17,01,12,0.30
2010,02,17,01,13,0.30
2010,02,17,01,14,0.30
2010,02,17,01,15,0.30
2010,02,17,01,16,0.30
2010,02,17,01,17,0.30
2010,02,17,01,18,0.30
2010,02,17,01,19,0.30
2010,02,17,01,20,0.30
2010,02,17,01,21,0.20
2010,02,17,01,22,0.20
2010,02,17,01,23,0.20
2010,02,17,01,24,0.20
2010,02,17,01,25,0.20
2010,02,17,01,26,0.20
2010,02,17,01,27,0.10
2010,02,17,01,28,0.10
2010,02,17,01,29,0.10
2010,02,17,01,30,0.10
2010,02,17,01,31,0.10
2010,02,17,01,32,0.10
2010,02,17,01,33,0.00
2010,02,17,01,34,0.00
2010,02,17,01,35,0.00
2010,02,17,01,36,0.00
2010,02,17,01,37,0.00
2010,02,17,01,38,0.00
2010,02,17,01,39,0.00
2010,02,17,01,40,0.00
2010,02,17,01,41,-0.10
2010,02,17,01,42,-0.10
2010,02,17,01,43,-0.10
2010,02,17,01,44,-0.10
2010,02,17,01,45,-0.10
2010,02,17,01,46,-0.10
2010,02,17,01,47,-0.10
2010,02,17,01,48,-0.10
2010,02,17,01,49,0.00
2010,02,17,01,50,0.00
2010,02,17,01,51,0.00
2010,02,17,01,52,0.00
2010,02,17,01,53,0.00
2010,02,17,01,54,0.00
2010,02,17,01,55,0.00
2010,02,17,01,56,0.00
2010,02,17,01,57,0.00
2010,02,17,01,58,0.00
2010,02,17,01,59,0.00
2010,02,17,02,00,0.00
2010,02,17,02,01,0.00
2010,02,17,02,02,-0.10
2010,02,17,02,03,-0.10
2010,02,17,02,04,-0.10
2010,02,17,02,05,-0.10
2010,02,17,02,06,-0.10
2010,02,17,02,07,-0.10
2010,02,17,02,08,-0.10
2010,02,17,02,09,-0.10
2010,02,17,02,10,-0.20
2010,02,17,02,11,-0.20
2010,02,17,02,12,-0.20
2010,02,17,02,13,-0.20
2010,02,17,02,14,-0.20
2010,02,17,02,15,-0.20
2010,02,17,02,16,-0.20
2010,02,17,02,17,-0.20
2010,02,17,02,18,-0.30
2010,02,17,02,19,-0.30
2010,02,17,02,20,-0.30
2010,02,17,02,21,-0.30
2010,02,17,02,22,-0.30
2010,02,17,02,23,-0.30
2010,02,17,02,24,-0.40
2010,02,17,02,25,-0.40
2010,02,17,02,26,-0.40
2010,02,17,02,27,-0.40
2010,02,17,02,28,-0.50
2010,02,17,02,29,-0.50
2010,02,17,02,30,-0.50
2010,02,17,02,31,-0.50
2010,02,17,02,32,-0.50
2010,02,17,02,33,-0.50
2010,02,17,02,34,-0.60
2010,02,17,02,35,-0.60
2010,02,17,02,36,-0.60
2010,02,17,02,37,-0.60
2010,02,17,02,38,-0.60
2010,02,17,02,39,-0.60
2010,02,17,02,40,-0.60
2010,02,17,02,41,-0.60
2010,02,17,02,42,-0.60
2010,02,17,02,43,-0.60
2010,02,17,02,44,-0.60
2010,02,17,02,45,-0.60
2010,02,17,02,46,-0.60
2010,02,17,02,47,-0.60
2010,02,17,02,48,-0.60
2010,02,17,02,49,-0.60
2010,02,17,02,50,-0.60
2010,02,17,02,51,-0.60
2010,02,17,02,52,-0.60
2010,02,17,02,53,-0.70
2010,02,17,02,54,-0.70
2010,02,17,02,55,-0.70
2010,02,17,02,56,-0.70
2010,02,17,02,57,-0.70
2010,02,17,02,58,-0.70
2010,02,17,02,59,-0.70
2010,02,17,03,00,-0.70
2010,02,17,03,01,-0.70
2010,02,17,03,02,-0.70
2010,02,17,03,03,-0.70
2010,02,17,03,04,-0.70
2010,02,17,03,05,-0.70
2010,02,17,03,06,-0.70
2010,02,17,03,07,-0.70
2010,02,17,03,08,-0.70
2010,02,17,03,09,-0.70
2010,02,17,03,10,-0.80
2010,02,17,03,11,-0.80
2010,02,17,03,12,-0.80
2010,02,17,03,13,-0.80
2010,02,17,03,14,-0.80
2010,02,17,03,15,-0.80
2010,02,17,03,16,-0.80
2010,02,17,03,17,-0.80
2010,02,17,03,18,-0.80
2010,02,17,03,19,-0.80
2010,02,17,03,20,-0.80
2010,02,17,03,21,-0.80
2010,02,17,03,22,-0.80
2010,02,17,03,23,-0.80
2010,02,17,03,24,-0.80
2010,02,17,03,25,-0.80
2010,02,17,03,26,-0.80
2010,02,17,03,27,-0.80
2010,02,17,03,28,-0.80
2010,02,17,03,29,-0.80
2010,02,17,03,30,-0.80
2010,02,17,03,31,-0.80
2010,02,17,03,32,-0.80
2010,02,17,03,33,-0.80
2010,02,17,03,34,-0.80
2010,02,17,03,35,-0.80
2010,02,17,03,36,-0.80
2010,02,17,03,37,-0.80
2010,02,17,03,38,-0.80
2010,02,17,03,39,-0.90
2010,02,17,03,40,-0.90
2010,02,17,03,41,-0.90
2010,02,17,03,42,-0.90
2010,02,17,03,43,-0.90
2010,02,17,03,44,-1.00
2010,02,17,03,45,-1.00
2010,02,17,03,46,-1.00
2010,02,17,03,47,-1.00
2010,02,17,03,48,-1.00
2010,02,17,03,49,-1.00
2010,02,17,03,50,-1.00
2010,02,17,03,51,-1.00
2010,02,17,03,52,-1.00
2010,02,17,03,53,-1.00
2010,02,17,03,54,-1.00
2010,02,17,03,55,-1.00
2010,02,17,03,56,-1.00
2010,02,17,03,57,-1.00
2010,02,17,03,58,-1.00
2010,02,17,03,59,-1.00
2010,02,17,04,00,-1.00
2010,02,17,04,01,-1.00
2010,02,17,04,02,-1.00
2010,02,17,04,03,-0.90
2010,02,17,04,04,-0.90
2010,02,17,04,05,-0.80
2010,02,17,04,06,-0.80
2010,02,17,04,07,-0.70
2010,02,17,04,08,-0.70
2010,02,17,04,09,-0.70
2010,02,17,04,10,-0.60
2010,02,17,04,11,-0.60
2010,02,17,04,12,-0.60
2010,02,17,04,13,-0.50
2010,02,17,04,14,-0.50
2010,02,17,04,15,-0.40
2010,02,17,04,16,-0.40
2010,02,17,04,17,-0.30
2010,02,17,04,18,-0.30
2010,02,17,04,19,-0.20
2010,02,17,04,20,-0.10
2010,02,17,04,21,-0.10
2010,02,17,04,22,-0.10
2010,02,17,04,23,0.00
2010,02,17,04,24,0.00
2010,02,17,04,25,0.10
2010,02,17,04,26,0.20
2010,02,17,04,27,0.20
2010,02,17,04,28,0.30
2010,02,17,04,29,0.40
2010,02,17,04,30,0.50
2010,02,17,04,31,0.50
2010,02,17,04,32,0.60
2010,02,17,04,33,0.70
2010,02,17,04,34,0.70
2010,02,17,04,35,0.70
2010,02,17,04,36,0.70
2010,02,17,04,37,0.80
2010,02,17,04,38,0.80
2010,02,17,04,39,0.80
2010,02,17,04,40,0.70
2010,02,17,04,41,0.70
2010,02,17,04,42,0.70
2010,02,17,04,43,0.70
2010,02,17,04,44,0.70
2010,02,17,04,45,0.70
2010,02,17,04,46,0.70
2010,02,17,04,47,0.80
2010,02,17,04,48,0.80
2010,02,17,04,49,0.80
2010,02,17,04,50,0.80
2010,02,17,04,51,0.80
2010,02,17,04,52,0.80
2010,02,17,04,53,0.80
2010,02,17,04,54,0.80
2010,02,17,04,55,0.90
2010,02,17,04,56,0.90
2010,02,17,04,57,0.90
2010,02,17,04,58,1.00
2010,02,17,04,59,1.00
2010,02,17,05,00,1.00
2010,02,17,05,01,1.10
2010,02,17,05,02,1.10
2010,02,17,05,03,1.10
2010,02,17,05,04,1.10
2010,02,17,05,05,1.10
2010,02,17,05,06,1.10
2010,02,17,05,07,1.10
2010,02,17,05,08,1.10
2010,02,17,05,09,1.10
2010,02,17,05,10,1.10
2010,02,17,05,11,1.10
2010,02,17,05,12,1.10
2010,02,17,05,13,1.00
2010,02,17,05,14,1.00
2010,02,17,05,15,0.90
2010,02,17,05,16,0.90
2010,02,17,05,17,0.80
2010,02,17,05,18,0.80
2010,02,17,05,19,0.80
2010,02,17,05,20,0.80
2010,02,17,05,21,0.70
2010,02,17,05,22,0.70
2010,02,17,05,23,0.70
2010,02,17,05,24,0.60
2010,02,17,05,25,0.60
2010,02,17,05,26,0.60
2010,02,17,05,27,0.60
2010,02,17,05,28,0.60
2010,02,17,05,29,0.60
2010,02,17,05,30,0.50
2010,02,17,05,31,0.50
2010,02,17,05,32,0.50
2010,02,17,05,33,0.50
2010,02,17,05,34,0.50
2010,02,17,05,35,0.50
2010,02,17,05,36,0.50
2010,02,17,05,37,0.50
2010,02,17,05,38,0.50
2010,02,17,05,39,0.50
2010,02,17,05,40,0.50
2010,02,17,05,41,0.50
2010,02,17,05,42,0.50
2010,02,17,05,43,0.60
2010,02,17,05,44,0.60
2010,02,17,05,45,0.60
2010,02,17,05,46,0.70
2010,02,17,05,47,0.70
2010,02,17,05,48,0.70
2010,02,17,05,49,0.80
2010,02,17,05,50,0.80
2010,02,17,05,51,0.80
2010,02,17,05,52,0.90
2010,02,17,05,53,0.90
2010,02,17,05,54,0.90
2010,02,17,05,55,1.00
2010,02,17,05,56,1.10
2010,02,17,05,57,1.10
2010,02,17,05,58,1.10
2010,02,17,05,59,1.20
2010,02,17,06,00,1.20
2010,02,17,06,01,1.30
2010,02,17,06,02,1.30
2010,02,17,06,03,1.30
2010,02,17,06,04,1.30
2010,02,17,06,05,1.30
2010,02,17,06,06,1.30
2010,02,17,06,07,1.30
2010,02,17,06,08,1.40
2010,02,17,06,09,1.40
2010,02,17,06,10,1.50
2010,02,17,06,11,1.50
2010,02,17,06,12,1.60
2010,02,17,06,13,1.60
2010,02,17,06,14,1.60
2010,02,17,06,15,1.60
2010,02,17,06,16,1.60
2010,02,17,06,17,1.70
2010,02,17,06,18,1.60
2010,02,17,06,19,1.70
2010,02,17,06,20,1.70
2010,02,17,06,21,1.70
2010,02,17,06,22,1.70
2010,02,17,06,23,1.60
2010,02,17,06,24,1.60
2010,02,17,06,25,1.60
2010,02,17,06,26,1.60
2010,02,17,06,27,1.60
2010,02,17,06,28,1.60
2010,02,17,06,29,1.60
2010,02,17,06,30,1.60
2010,02,17,06,31,1.60
2010,02,17,06,32,1.60
2010,02,17,06,33,1.60
2010,02,17,06,34,1.60
2010,02,17,06,35,1.60
2010,02,17,06,36,1.60
2010,02,17,06,37,1.60
2010,02,17,06,38,1.70
2010,02,17,06,39,1.70
2010,02,17,06,40,1.70
2010,02,17,06,41,1.70
2010,02,17,06,42,1.80
2010,02,17,06,43,1.80
2010,02,17,06,44,1.80
2010,02,17,06,45,1.80
2010,02,17,06,46,1.80
2010,02,17,06,47,1.80
2010,02,17,06,48,1.80
2010,02,17,06,49,1.80
2010,02,17,06,50,1.70
2010,02,17,06,51,1.70
2010,02,17,06,52,1.70
2010,02,17,06,53,1.70
2010,02,17,06,54,1.70
2010,02,17,06,55,1.70
2010,02,17,06,56,1.70
2010,02,17,06,57,1.70
2010,02,17,06,58,1.70
2010,02,17,06,59,1.70
2010,02,17,07,00,1.80
2010,02,17,07,01,1.80
2010,02,17,07,02,1.80
2010,02,17,07,03,1.90
2010,02,17,07,04,1.90
2010,02,17,07,05,2.00
2010,02,17,07,06,2.10
2010,02,17,07,07,2.10
2010,02,17,07,08,2.10
2010,02,17,07,09,2.10
2010,02,17,07,10,2.10
2010,02,17,07,11,2.20
2010,02,17,07,12,2.20
2010,02,17,07,13,2.20
2010,02,17,07,14,2.30
2010,02,17,07,15,2.30
2010,02,17,07,16,2.30
2010,02,17,07,17,2.40
2010,02,17,07,18,2.40
2010,02,17,07,19,2.40
2010,02,17,07,20,2.50
2010,02,17,07,21,2.50
2010,02,17,07,22,2.60
2010,02,17,07,23,2.60
2010,02,17,07,24,2.60
2010,02,17,07,25,2.70
2010,02,17,07,26,2.70
2010,02,17,07,27,2.70
2010,02,17,07,28,2.80
2010,02,17,07,29,2.80
2010,02,17,07,30,2.90
2010,02,17,07,31,2.90
2010,02,17,07,32,2.90
2010,02,17,07,33,3.00
2010,02,17,07,34,3.00
2010,02,17,07,35,3.10
2010,02,17,07,36,3.10
2010,02,17,07,37,3.20
2010,02,17,07,38,3.20
2010,02,17,07,39,3.20
2010,02,17,07,40,3.30
2010,02,17,07,41,3.30
2010,02,17,07,42,3.30
2010,02,17,07,43,3.30
2010,02,17,07,44,3.30
2010,02,17,07,45,3.30
2010,02,17,07,46,3.30
2010,02,17,07,47,3.30
2010,02,17,07,48,3.30
2010,02,17,07,49,3.30
2010,02,17,07,50,3.30
2010,02,17,07,51,3.30
2010,02,17,07,52,3.30
2010,02,17,07,53,3.30
2010,02,17,07,54,3.30
2010,02,17,07,55,3.30
2010,02,17,07,56,3.30
2010,02,17,07,57,3.30
2010,02,17,07,58,3.30
2010,02,17,07,59,3.30
2010,02,17,08,00,3.20
2010,02,17,08,01,3.30
2010,02,17,08,02,3.30
2010,02,17,08,03,3.30
2010,02,17,08,04,3.30
2010,02,17,08,05,3.30
2010,02,17,08,06,3.30
2010,02,17,08,07,3.30
2010,02,17,08,08,3.30
2010,02,17,08,09,3.30
2010,02,17,08,10,3.30
2010,02,17,08,11,3.40
2010,02,17,08,12,3.40
2010,02,17,08,13,3.40
2010,02,17,08,14,3.40
2010,02,17,08,15,3.40
2010,02,17,08,16,3.40
2010,02,17,08,17,3.40
2010,02,17,08,18,3.40
2010,02,17,08,19,3.40
2010,02,17,08,20,3.50
2010,02,17,08,21,3.50
2010,02,17,08,22,3.60
2010,02,17,08,23,3.60
2010,02,17,08,24,3.60
2010,02,17,08,25,3.60
2010,02,17,08,26,3.70
2010,02,17,08,27,3.70
2010,02,17,08,28,3.70
2010,02,17,08,29,3.70
2010,02,17,08,30,3.80
2010,02,17,08,31,3.80
2010,02,17,08,32,3.80
2010,02,17,08,33,3.90
2010,02,17,08,34,4.00
2010,02,17,08,35,4.10
2010,02,17,08,36,4.20
2010,02,17,08,37,4.20
2010,02,17,08,38,4.30
2010,02,17,08,39,4.30
2010,02,17,08,40,4.30
2010,02,17,08,41,4.40
2010,02,17,08,42,4.40
2010,02,17,08,43,4.50
2010,02,17,08,44,4.60
2010,02,17,08,45,4.60
2010,02,17,08,46,4.70
2010,02,17,08,47,4.80
2010,02,17,08,48,4.80
2010,02,17,08,49,4.90
2010,02,17,08,50,5.00
2010,02,17,08,51,5.10
2010,02,17,08,52,5.10
2010,02,17,08,53,5.20
2010,02,17,08,54,5.20
2010,02,17,08,55,5.20
2010,02,17,08,56,5.30
2010,02,17,08,57,5.30
2010,02,17,08,58,5.40
2010,02,17,08,59,5.40
2010,02,17,09,00,5.40
2010,02,17,09,01,5.50
2010,02,17,09,02,5.60
2010,02,17,09,03,5.60
2010,02,17,09,04,5.70
2010,02,17,09,05,5.70
2010,02,17,09,06,5.80
2010,02,17,09,07,5.80
2010,02,17,09,08,5.90
2010,02,17,09,09,5.90
2010,02,17,09,10,6.00
2010,02,17,09,11,6.00
2010,02,17,09,12,6.10
2010,02,17,09,13,6.10
2010,02,17,09,14,6.20
2010,02,17,09,15,6.20
2010,02,17,09,16,6.20
2010,02,17,09,17,6.30
2010,02,17,09,18,6.30
2010,02,17,09,19,6.30
2010,02,17,09,20,6.30
2010,02,17,09,21,6.30
2010,02,17,09,22,6.40
2010,02,17,09,23,6.40
2010,02,17,09,24,6.40
2010,02,17,09,25,6.50
2010,02,17,09,26,6.50
2010,02,17,09,27,6.50
2010,02,17,09,28,6.60
2010,02,17,09,29,6.60
2010,02,17,09,30,6.60
2010,02,17,09,31,6.60
2010,02,17,09,32,6.70
2010,02,17,09,33,6.70
2010,02,17,09,34,6.70
2010,02,17,09,35,6.70
2010,02,17,09,36,6.80
2010,02,17,09,37,6.80
2010,02,17,09,38,6.80
2010,02,17,09,39,6.90
2010,02,17,09,40,6.90
2010,02,17,09,41,7.00
2010,02,17,09,42,7.00
2010,02,17,09,43,7.10
2010,02,17,09,44,7.10
2010,02,17,09,45,7.10
2010,02,17,09,46,7.20
2010,02,17,09,47,7.20
2010,02,17,09,48,7.20
2010,02,17,09,49,7.20
2010,02,17,09,50,7.30
2010,02,17,09,51,7.30
2010,02,17,09,52,7.30
2010,02,17,09,53,7.40
2010,02,17,09,54,7.40
2010,02,17,09,55,7.50
2010,02,17,09,56,7.50
2010,02,17,09,57,7.60
2010,02,17,09,58,7.60
2010,02,17,09,59,7.70
2010,02,17,10,00,7.70
2010,02,17,10,01,7.70
2010,02,17,10,02,7.80
2010,02,17,10,03,7.80
2010,02,17,10,04,7.80
2010,02,17,10,05,7.80
2010,02,17,10,06,7.80
2010,02,17,10,07,7.90
2010,02,17,10,08,7.90
2010,02,17,10,09,7.90
2010,02,17,10,10,8.00
2010,02,17,10,11,8.00
2010,02,17,10,12,8.10
2010,02,17,10,13,8.10
2010,02,17,10,14,8.10
2010,02,17,10,15,8.10
2010,02,17,10,16,8.20
2010,02,17,10,17,8.20
2010,02,17,10,18,8.20
2010,02,17,10,19,8.20
2010,02,17,10,20,8.20
2010,02,17,10,21,8.10
2010,02,17,10,22,8.10
2010,02,17,10,23,8.10
2010,02,17,10,24,8.20
2010,02,17,10,25,8.20
2010,02,17,10,26,8.20
2010,02,17,10,27,8.20
2010,02,17,10,28,8.20
2010,02,17,10,29,8.30
2010,02,17,10,30,8.30
2010,02,17,10,31,8.30
2010,02,17,10,32,8.30
2010,02,17,10,33,8.30
2010,02,17,10,34,8.30
2010,02,17,10,35,8.30
2010,02,17,10,36,8.40
2010,02,17,10,37,8.40
2010,02,17,10,38,8.40
2010,02,17,10,39,8.40
2010,02,17,10,40,8.40
2010,02,17,10,41,8.50
2010,02,17,10,42,8.50
2010,02,17,10,43,8.50
2010,02,17,10,44,8.50
2010,02,17,10,45,8.60
2010,02,17,10,46,8.60
2010,02,17,10,47,8.60
2010,02,17,10,48,8.60
2010,02,17,10,49,8.60
2010,02,17,10,50,8.60
2010,02,17,10,51,8.60
2010,02,17,10,52,8.60
2010,02,17,10,53,8.70
2010,02,17,10,54,8.70
2010,02,17,10,55,8.70
2010,02,17,10,56,8.80
2010,02,17,10,57,8.80
2010,02,17,10,58,8.80
2010,02,17,10,59,8.90
2010,02,17,11,00,8.90
2010,02,17,11,01,8.80
2010,02,17,11,02,8.80
2010,02,17,11,03,8.70
2010,02,17,11,04,8.50
2010,02,17,11,05,8.40
2010,02,17,11,06,8.40
2010,02,17,11,07,8.30
2010,02,17,11,08,8.30
2010,02,17,11,09,8.30
2010,02,17,11,10,8.40
2010,02,17,11,11,8.40
2010,02,17,11,12,8.50
2010,02,17,11,13,8.50
2010,02,17,11,14,8.60
2010,02,17,11,15,8.60
2010,02,17,11,16,8.70
2010,02,17,11,17,8.60
2010,02,17,11,18,8.60
2010,02,17,11,19,8.60
2010,02,17,11,20,8.60
2010,02,17,11,21,8.60
2010,02,17,11,22,8.60
2010,02,17,11,23,8.60
2010,02,17,11,24,8.60
2010,02,17,11,25,8.70
2010,02,17,11,26,8.70
2010,02,17,11,27,8.80
2010,02,17,11,28,8.80
2010,02,17,11,29,8.80
2010,02,17,11,30,8.80
2010,02,17,11,31,8.70
2010,02,17,11,32,8.70
2010,02,17,11,33,8.70
2010,02,17,11,34,8.80
2010,02,17,11,35,8.90
2010,02,17,11,36,9.00
2010,02,17,11,37,9.00
2010,02,17,11,38,9.10
2010,02,17,11,39,9.20
2010,02,17,11,40,9.30
2010,02,17,11,41,9.30
2010,02,17,11,42,9.40
2010,02,17,11,43,9.50
2010,02,17,11,44,9.50
2010,02,17,11,45,9.50
2010,02,17,11,46,9.50
2010,02,17,11,47,9.60
2010,02,17,11,48,9.50
2010,02,17,11,49,9.40
2010,02,17,11,50,9.30
2010,02,17,11,51,9.30
2010,02,17,11,52,9.20
2010,02,17,11,53,9.20
2010,02,17,11,54,9.20
2010,02,17,11,55,9.20
2010,02,17,11,56,9.20
2010,02,17,11,57,9.30
2010,02,17,11,58,9.40
2010,02,17,11,59,9.50
2010,02,17,12,00,9.50
2010,02,17,12,01,9.40
2010,02,17,12,02,9.40
2010,02,17,12,03,9.30
2010,02,17,12,04,9.20
2010,02,17,12,05,9.20
2010,02,17,12,06,9.20
2010,02,17,12,07,9.30
2010,02,17,12,08,9.50
2010,02,17,12,09,9.60
2010,02,17,12,10,9.70
2010,02,17,12,11,9.70
2010,02,17,12,12,9.70
2010,02,17,12,13,9.70
2010,02,17,12,14,9.80
2010,02,17,12,15,9.80
2010,02,17,12,16,9.90
2010,02,17,12,17,9.90
2010,02,17,12,18,9.90
2010,02,17,12,19,10.00
2010,02,17,12,20,10.00
2010,02,17,12,21,10.00
2010,02,17,12,22,10.00
2010,02,17,12,23,10.10
2010,02,17,12,24,10.10
2010,02,17,12,25,10.20
2010,02,17,12,26,10.20
2010,02,17,12,27,10.10
2010,02,17,12,28,10.10
2010,02,17,12,29,10.20
2010,02,17,12,30,10.10
2010,02,17,12,31,10.10
2010,02,17,12,32,10.10
2010,02,17,12,33,10.10
2010,02,17,12,34,10.10
2010,02,17,12,35,10.20
2010,02,17,12,36,10.20
2010,02,17,12,37,10.20
2010,02,17,12,38,10.30
2010,02,17,12,39,10.30
2010,02,17,12,40,10.30
2010,02,17,12,41,10.20
2010,02,17,12,42,10.20
2010,02,17,12,43,10.20
2010,02,17,12,44,10.20
2010,02,17,12,45,10.20
2010,02,17,12,46,10.20
2010,02,17,12,47,10.30
2010,02,17,12,48,10.30
2010,02,17,12,49,10.40
2010,02,17,12,50,10.50
2010,02,17,12,51,10.60
2010,02,17,12,52,10.70
2010,02,17,12,53,10.70
2010,02,17,12,54,10.80
2010,02,17,12,55,10.80
2010,02,17,12,56,10.80
2010,02,17,12,57,10.80
2010,02,17,12,58,10.80
2010,02,17,12,59,10.80
2010,02,17,13,00,10.80
2010,02,17,13,01,10.80
2010,02,17,13,02,10.80
2010,02,17,13,03,10.90
2010,02,17,13,04,10.90
2010,02,17,13,05,11.00
2010,02,17,13,06,11.10
2010,02,17,13,07,11.10
2010,02,17,13,08,11.20
2010,02,17,13,09,11.20
2010,02,17,13,10,11.30
2010,02,17,13,11,11.30
2010,02,17,13,12,11.30
2010,02,17,13,13,11.40
2010,02,17,13,14,11.40
2010,02,17,13,15,11.40
2010,02,17,13,16,11.30
2010,02,17,13,17,11.20
2010,02,17,13,18,11.10
2010,02,17,13,19,11.10
2010,02,17,13,20,11.10
2010,02,17,13,21,11.00
2010,02,17,13,22,11.00
2010,02,17,13,23,11.00
2010,02,17,13,24,11.10
2010,02,17,13,25,11.10
2010,02,17,13,26,11.20
2010,02,17,13,27,11.30
2010,02,17,13,28,11.30
2010,02,17,13,29,11.30
2010,02,17,13,30,11.40
2010,02,17,13,31,11.30
2010,02,17,13,32,11.30
2010,02,17,13,33,11.30
2010,02,17,13,34,11.30
2010,02,17,13,35,11.30
2010,02,17,13,36,11.30
2010,02,17,13,37,11.30
2010,02,17,13,38,11.40
2010,02,17,13,39,11.40
2010,02,17,13,40,11.40
2010,02,17,13,41,11.40
2010,02,17,13,42,11.40
2010,02,17,13,43,11.40
2010,02,17,13,44,11.40
2010,02,17,13,45,11.40
2010,02,17,13,46,11.30
2010,02,17,13,47,11.30
2010,02,17,13,48,11.20
2010,02,17,13,49,11.20
2010,02,17,13,50,11.20
2010,02,17,13,51,11.20
2010,02,17,13,52,11.30
2010,02,17,13,53,11.30
2010,02,17,13,54,11.30
2010,02,17,13,55,11.30
2010,02,17,13,56,11.30
2010,02,17,13,57,11.30
2010,02,17,13,58,11.30
2010,02,17,13,59,11.50
2010,02,17,14,00,11.60
2010,02,17,14,01,11.60
2010,02,17,14,02,11.60
2010,02,17,14,03,11.50
2010,02,17,14,04,11.50
2010,02,17,14,05,11.50
2010,02,17,14,06,11.50
2010,02,17,14,07,11.60
2010,02,17,14,08,11.60
2010,02,17,14,09,11.50
2010,02,17,14,10,11.50
2010,02,17,14,11,11.40
2010,02,17,14,12,11.40
2010,02,17,14,13,11.50
2010,02,17,14,14,11.50
2010,02,17,14,15,11.60
2010,02,17,14,16,11.60
2010,02,17,14,17,11.70
2010,02,17,14,18,11.70
2010,02,17,14,19,11.70
2010,02,17,14,20,11.70
2010,02,17,14,21,11.70
2010,02,17,14,22,11.80
2010,02,17,14,23,11.80
2010,02,17,14,24,11.80
2010,02,17,14,25,11.70
2010,02,17,14,26,11.70
2010,02,17,14,27,11.60
2010,02,17,14,28,11.60
2010,02,17,14,29,11.60
2010,02,17,14,30,11.60
2010,02,17,14,31,11.60
2010,02,17,14,32,11.60
2010,02,17,14,33,11.60
2010,02,17,14,34,11.60
2010,02,17,14,35,11.60
2010,02,17,14,36,11.60
2010,02,17,14,37,11.60
2010,02,17,14,38,11.70
2010,02,17,14,39,11.70
2010,02,17,14,40,11.80
2010,02,17,14,41,11.80
2010,02,17,14,42,11.80
2010,02,17,14,43,11.80
2010,02,17,14,44,11.80
2010,02,17,14,45,11.80
2010,02,17,14,46,11.80
2010,02,17,14,47,11.80
2010,02,17,14,48,11.90
2010,02,17,14,49,11.90
2010,02,17,14,50,11.90
2010,02,17,14,51,11.90
2010,02,17,14,52,11.90
2010,02,17,14,53,11.90
2010,02,17,14,54,11.90
2010,02,17,14,55,11.90
2010,02,17,14,56,11.90
2010,02,17,14,57,11.80
2010,02,17,14,58,11.80
2010,02,17,14,59,11.90
2010,02,17,15,00,11.90
2010,02,17,15,01,11.90
2010,02,17,15,02,11.90
2010,02,17,15,03,12.00
2010,02,17,15,04,12.00
2010,02,17,15,05,12.10
2010,02,17,15,06,12.10
2010,02,17,15,07,12.20
2010,02,17,15,08,12.20
2010,02,17,15,09,12.30
2010,02,17,15,10,12.30
2010,02,17,15,11,12.30
2010,02,17,15,12,12.30
2010,02,17,15,13,12.20
2010,02,17,15,14,12.20
2010,02,17,15,15,12.10
2010,02,17,15,16,12.10
2010,02,17,15,17,12.10
2010,02,17,15,18,12.00
2010,02,17,15,19,12.00
2010,02,17,15,20,11.90
2010,02,17,15,21,11.90
2010,02,17,15,22,11.90
2010,02,17,15,23,11.90
2010,02,17,15,24,11.90
2010,02,17,15,25,12.00
2010,02,17,15,26,12.00
2010,02,17,15,27,11.90
2010,02,17,15,28,11.90
2010,02,17,15,29,11.90
2010,02,17,15,30,12.00
2010,02,17,15,31,12.00
2010,02,17,15,32,12.00
2010,02,17,15,33,12.00
2010,02,17,15,34,12.00
2010,02,17,15,35,12.00
2010,02,17,15,36,12.00
2010,02,17,15,37,12.00
2010,02,17,15,38,12.00
2010,02,17,15,39,11.90
2010,02,17,15,40,11.90
2010,02,17,15,41,11.90
2010,02,17,15,42,11.90
2010,02,17,15,43,11.80
2010,02,17,15,44,11.80
2010,02,17,15,45,11.80
2010,02,17,15,46,11.80
2010,02,17,15,47,11.80
2010,02,17,15,48,11.80
2010,02,17,15,49,11.70
2010,02,17,15,50,11.70
2010,02,17,15,51,11.70
2010,02,17,15,52,11.70
2010,02,17,15,53,11.70
2010,02,17,15,54,11.70
2010,02,17,15,55,11.70
2010,02,17,15,56,11.70
2010,02,17,15,57,11.70
2010,02,17,15,58,11.60
2010,02,17,15,59,11.60
2010,02,17,16,00,11.60
2010,02,17,16,01,11.60
2010,02,17,16,02,11.60
2010,02,17,16,03,11.50
2010,02,17,16,04,11.50
2010,02,17,16,05,11.40
2010,02,17,16,06,11.30
2010,02,17,16,07,11.20
2010,02,17,16,08,11.20
2010,02,17,16,09,11.20
2010,02,17,16,10,11.20
2010,02,17,16,11,11.20
2010,02,17,16,12,11.20
2010,02,17,16,13,11.20
2010,02,17,16,14,11.20
2010,02,17,16,15,11.20
2010,02,17,16,16,11.30
2010,02,17,16,17,11.30
2010,02,17,16,18,11.40
2010,02,17,16,19,11.40
2010,02,17,16,20,11.40
2010,02,17,16,21,11.40
2010,02,17,16,22,11.40
2010,02,17,16,23,11.30
2010,02,17,16,24,11.30
2010,02,17,16,25,11.20
2010,02,17,16,26,11.20
2010,02,17,16,27,11.20
2010,02,17,16,28,11.20
2010,02,17,16,29,11.20
2010,02,17,16,30,11.20
2010,02,17,16,31,11.20
2010,02,17,16,32,11.20
2010,02,17,16,33,11.10
2010,02,17,16,34,11.10
2010,02,17,16,35,11.10
2010,02,17,16,36,11.00
2010,02,17,16,37,11.00
2010,02,17,16,38,10.90
2010,02,17,16,39,10.90
2010,02,17,16,40,10.90
2010,02,17,16,41,10.90
2010,02,17,16,42,10.80
2010,02,17,16,43,10.80
2010,02,17,16,44,10.80
2010,02,17,16,45,10.70
2010,02,17,16,46,10.70
2010,02,17,16,47,10.70
2010,02,17,16,48,10.60
2010,02,17,16,49,10.60
2010,02,17,16,50,10.60
2010,02,17,16,51,10.50
2010,02,17,16,52,10.50
2010,02,17,16,53,10.50
2010,02,17,16,54,10.40
2010,02,17,16,55,10.40
2010,02,17,16,56,10.40
2010,02,17,16,57,10.40
2010,02,17,16,58,10.30
2010,02,17,16,59,10.30
2010,02,17,17,00,10.30
2010,02,17,17,01,10.20
2010,02,17,17,02,10.20
2010,02,17,17,03,10.20
2010,02,17,17,04,10.20
2010,02,17,17,05,10.10
2010,02,17,17,06,10.10
2010,02,17,17,07,10.00
2010,02,17,17,08,10.00
2010,02,17,17,09,10.00
2010,02,17,17,10,9.90
2010,02,17,17,11,9.90
2010,02,17,17,12,9.90
2010,02,17,17,13,9.90
2010,02,17,17,14,9.80
2010,02,17,17,15,9.80
2010,02,17,17,16,9.80
2010,02,17,17,17,9.80
2010,02,17,17,18,9.70
2010,02,17,17,19,9.70
2010,02,17,17,20,9.70
2010,02,17,17,21,9.60
2010,02,17,17,22,9.60
2010,02,17,17,23,9.60
2010,02,17,17,24,9.60
2010,02,17,17,25,9.50
2010,02,17,17,26,9.50
2010,02,17,17,27,9.40
2010,02,17,17,28,9.40
2010,02,17,17,29,9.30
2010,02,17,17,30,9.30
2010,02,17,17,31,9.30
2010,02,17,17,32,9.20
2010,02,17,17,33,9.20
2010,02,17,17,34,9.10
2010,02,17,17,35,9.10
2010,02,17,17,36,9.00
2010,02,17,17,37,9.00
2010,02,17,17,38,8.90
2010,02,17,17,39,8.90
2010,02,17,17,40,8.80
2010,02,17,17,41,8.80
2010,02,17,17,42,8.80
2010,02,17,17,43,8.80
2010,02,17,17,44,8.70
2010,02,17,17,45,8.70
2010,02,17,17,46,8.60